User: anonymous   Login
Location: Mactaquac Provincial Park
(45.9573°N, 66.8897°W)
Time: 00:38:59
(UTC-03:00)
Language:

Cosmos 1766 - Orbit

View from above orbital plane
View from above orbital plane
View from above satellite
View from above satellite

Ground track
Ground track

The orbit data is extracted from the following two-line orbital elements,

1 16881U 86055A   17175.59210900 +.00000034 +00000-0 +17461-6 0  9997
2 16881 082.5031 016.4467 0018362 075.3191 285.0072 15.10111285661393
Epoch (UTC): 24 June 2017 14:12:38
Eccentricity: 0.0018362
inclination: 82.5031°
perigee height: 523 km
apogee height: 548 km
right ascension of ascending node: 16.4467°
argument of perigee: 75.3191°
revolutions per day: 15.10111285
mean anomaly at epoch: 285.0072°
orbit number at epoch: 66139

The dashed part of the orbit path shows where the satellite is in the earth's shadow,  

DLR